Location: Vancouver
(49.2500°N, 123.1330°W)
Time: 05:05:38
(UTC-07:00)

deb Explorer IX - Visible Passes

Search period start: 29 April 2016 00:00
Search period end: 09 May 2016 00:00
Orbit: 549 x 1135 km, 38.8° (Epoch: 28 April)

Date Brightness Start Highest point End Pass type
(mag) Time Alt. Az. Time Alt. Az. Time Alt. Az.
29 Apr ? 03:13:05 12° SE 03:13:05 12° SE 03:13:31 10° SE visible
29 Apr ? 04:54:52 10° SW 04:55:15 10° SW 04:56:14 10° SSW visible
29 Apr ? 21:31:39 10° SSE 21:32:12 10° SE 21:32:12 10° SE visible
29 Apr ? 23:13:24 10° SSW 23:14:04 12° SSW 23:14:04 12° SSW visible
30 Apr ? 21:13:21 10° SSE 21:15:29 11° SE 21:17:34 10° SE visible
30 Apr ? 22:56:16 10° SSW 22:59:57 22° S 22:59:57 22° S visible
01 May ? 22:39:10 10° SW 22:45:04 27° SSE 22:45:26 27° SSE visible
02 May ? 00:25:42 10° WSW 00:27:14 16° SW 00:27:14 16° SW visible
02 May ? 22:22:05 10° SW 22:28:09 28° SSE 22:30:28 23° SE visible
03 May ? 00:08:43 10° WSW 00:12:14 25° SW 00:12:14 25° SW visible
03 May ? 22:05:01 10° SW 22:11:13 29° SSE 22:15:08 18° ESE visible
03 May ? 23:51:42 10° WSW 23:56:53 32° SSW 23:56:53 32° SSW visible
04 May ? 21:47:59 10° SW 21:54:17 30° SSE 21:59:32 13° ESE visible
04 May ? 23:34:42 10° WSW 23:41:14 35° S 23:41:15 35° S visible
05 May ? 01:22:31 10° WSW 01:23:00 12° WSW 01:23:00 12° WSW visible
05 May ? 21:30:57 10° SW 21:37:20 31° SSE 21:43:29 10° ESE visible
05 May ? 23:17:44 10° WSW 23:24:19 35° S 23:25:26 34° SSE visible
06 May ? 01:05:34 10° WSW 01:07:10 15° WSW 01:07:10 15° WSW visible
06 May ? 21:13:56 10° SW 21:20:23 32° SSE 21:26:40 10° ESE visible
06 May ? 23:00:45 10° WSW 23:07:23 36° S 23:09:29 30° SSE visible
07 May ? 00:48:38 10° WSW 00:51:12 18° WSW 00:51:12 18° WSW visible
07 May ? 22:43:47 10° WSW 22:50:27 36° S 22:53:26 26° SE visible
08 May ? 00:31:42 10° WSW 00:35:08 20° SW 00:35:08 20° SW visible
08 May ? 22:26:50 10° WSW 22:33:29 35° S 22:37:19 22° SE visible
